Simultaneous Nadir Overpasses (SNOs) Predictions

Prediction of SNOs between AQUA and METOP-B Satellite Orbit:

Table of predicted SNOs for the next 14.0 days since TLE Epoch: 2/22/2025
Index Date (AQUA) Time (AQUA) Lat,Lon (AQUA) SZA (AQUA ) Date (METOP-B) Time (METOP-B) Lat,Lon (METOP-B) SZA (METOP-B ) Distance(km) Time Diff (sec)
1 02/22/2025 20:20:36 76.97,-126.44 86.81 02/22/2025 20:20:07 76.96,-126.55 86.81 2.69 29
2 02/22/2025 21:09:56 -77.04, 40.96 93.14 02/22/2025 21:10:47 -77.04, 41.09 93.14 3.23 51
3 02/25/2025 09:09:59 76.99, 41.18 85.90 02/25/2025 09:09:11 77.00, 41.30 85.91 3.30 48
4 02/25/2025 09:59:18 -77.01,-151.23 94.10 02/25/2025 09:59:52 -77.03,-151.23 94.08 2.31 34
5 02/27/2025 21:59:20 77.01,-151.15 84.96 02/27/2025 21:58:16 76.98,-151.06 84.94 3.24 64
6 02/27/2025 22:48:39 -77.02, 16.46 95.04 02/27/2025 22:48:57 -77.02, 16.40 95.05 1.49 18
7 03/02/2025 10:48:35 76.82, 17.29 83.79 03/02/2025 10:47:25 76.78, 15.84 83.78 37.25 70
8 03/02/2025 11:37:58 -77.02,-175.79 96.02 03/02/2025 11:38:01 -77.04,-175.82 96.00 2.13 3
9 03/02/2025 12:27:26 77.43, -9.75 84.41 03/02/2025 12:28:32 77.43, -6.83 84.37 70.57 66
10 03/05/2025 00:27:16 -77.05, -8.16 96.96 03/05/2025 00:27:05 -77.04, -8.09 96.97 1.77 11
11 03/05/2025 01:16:36 77.09, 159.34 83.08 03/05/2025 01:17:44 77.09, 159.43 83.07 2.15 68
12 03/07/2025 13:16:31 -77.06, 159.53 97.94 03/07/2025 13:16:08 -77.04, 159.61 97.95 2.74 23



Historial Predications of SNOs between AQUA and METOP-B
